STARLINK-34748, 64848

Orbit data source: Space-Track

STARLINK-34748, 64848 is a payload satellite owned by SpaceX/Seattle (US) in SSO that was launched on Sat, 19 Jul 2025 UTC via an FALCON 9 launch vehicle from the Air Force Western Test Range (AFWTR). Payload-class satellites include a variety of spacecraft equipped with specific instruments for various scientific and technological missions. These include communications satellites like Starlink; space stations such as the ISS; scientific satellites like the Hubble; Earth observation satellites from companies like Planet Labs, Umbra, and HawkEye 360; GPS; miniature CubeSats for education and research; and military/defense satellites.

Loading next visibility...
Identifier
64848, 2025-152G
Orbit
SSO
Country
Flag of USUS
Related business
Manufacturer
SpaceX/Seattle
Mission
Operational Commercial Communications
Bus & Motor
STARLINK V2MO, Unknown motor
Mass
575 kg wet, ~530 kg dry
Launch date (UTC)
2025-07-19 (9 months ago)
Launch vehicle
FALCON 9
Launch site
Air Force Western Test Range (AFWTR)
Object type
Payload
Rocket body
Debris
Shape & HBR
Box + 2 Pan, 17.7 m
Radar Cross Section
36.964 m², Large (>1 m²)

Expand to show TLE details & history
Last TLE update: 19 hours ago

TLE from 19 hours ago
0 STARLINK-34748
1 64848U 25152G   26094.56428552  .00006044  00000-0  42242-3 0  9994
2 64848  97.6017 311.0512 0001988  70.8219 289.3223 15.05675172 39312
Epoch: 2026-04-04T13:32Z
TLE epoch observation values (Epoch: 2026-04-04T13:32:34.268Z)
Latitude
-0.00003°
Longitude
-84.97383°
Altitude
552.044 km
Speed
7.586 km/s
True Right ascension
20h 44m 12s
True Declination
0° 00' 00"
Sunlit
Object was in daylight at epoch
Visualization orbit readout
Latitude
Unknown
Longitude
Unknown
Altitude
Unknown
Speed
Unknown
Apparent Right ascension
Unknown
Apparent Declination
Unknown
Sunlit
N/A
Visualization observer readout
Local Sidereal Time
14:32:22
Azimuth
Unknown
Elevation
Unknown
Doppler factor
Unknown
Orbital elements
Apogee altitude
547.804 km
Perigee altitude
545.051 km
Semi-major axis
6,924.564 km
Eccentricity
0.0002
Inclination
97.6017°
RAAN
311.0512°
Arg. of periapsis
70.8219°
True anomaly
289.3008°
Mean anomaly
289.3223°
Eccentric anomaly
289.31155°
Mean motion
3.76664 °/min
Orbital period
95.58 mins
BSTAR
0.00042242
Loading maneuver chart data...
Computing Atmospheric mass density...
Loading historical data...
Loading historical data...
Loading historical data...
Loading historical data...
Loading historical data...
Loading historical data...
Loading historical data...

Documentation

Showing up to 5 results
|